N7NKE Weather Reports


Display with metric or nautical units.
time (UTC)temp
F
wind
direction
speed
MPH
gust
MPH
rain 1hr
in
rain 24hr
in
rain mn
in
humidity
%
barometer
mb
20190217114505 34 201 1.0 3.0 0.00 0.04 0.01 94 1016.1
20190217113004 34 158 1.0 3.0 0.00 0.04 0.01 94 1016.0
20190217111504 34 271 0.0 3.0 0.00 0.04 0.01 94 1015.9
20190217110004 34 216 1.0 6.0 0.00 0.04 0.01 94 1016.0
20190217104504 34 249 0.0 2.0 0.00 0.04 0.01 94 1016.0
20190217103005 34 0 0.0 1.0 0.00 0.04 0.01 94 1015.8
20190217101504 34 0 0.0 0.0 0.00 0.04 0.01 94 1015.7
20190217100004 33 0 0.0 0.0 0.00 0.04 0.01 94 1015.6
20190217094505 33 0 0.0 0.0 0.00 0.04 0.01 94 1015.5
20190217093005 33 0 0.0 2.0 0.00 0.04 0.01 93 1015.4
20190217091504 34 0 0.0 0.0 0.00 0.04 0.01 93 1015.2
20190217090006 34 0 0.0 1.0 0.01 0.04 0.01 94 1015.1
20190217084504 35 0 0.0 3.0 0.01 0.04 0.01 94 1015.0
20190217083005 35 0 2.0 3.0 0.01 0.04 0.01 93 1015.0
20190217081504 35 225 0.0 2.0 0.01 0.04 0.01 93 1014.8
20190217080004 36 225 1.0 3.0 0.00 0.03 0.00 93 1014.7
20190217074504 36 165 1.0 3.0 0.00 0.03 0.03 94 1014.6
20190217073004 37 235 0.0 3.0 0.00 0.03 0.03 94 1014.8
20190217071504 37 203 0.0 0.0 0.00 0.03 0.03 94 1014.9
20190217070004 37 203 0.0 1.0 0.00 0.03 0.03 94 1014.7
20190217064504 36 203 0.0 0.0 0.00 0.03 0.03 94 1014.6
20190217063005 36 203 0.0 0.0 0.00 0.03 0.03 94 1014.5
20190217061504 36 203 0.0 1.0 0.00 0.03 0.03 93 1014.4
20190217060004 36 203 0.0 1.0 0.00 0.03 0.03 93 1014.3
20190217054505 36 203 0.0 0.0 0.00 0.03 0.03 92 1014.1
20190217053005 37 203 0.0 0.0 0.00 0.04 0.03 92 1013.9
20190217051504 38 203 0.0 3.0 0.00 0.04 0.03 92 1013.5
20190217050005 38 221 0.0 0.0 0.00 0.04 0.03 92 1013.5
20190217044504 38 221 0.0 0.0 0.00 0.04 0.03 92 1013.4
20190217043004 38 221 0.0 0.0 0.00 0.04 0.03 92 1013.3
20190217041504 39 221 0.0 3.0 0.00 0.04 0.03 92 1013.2
20190217040005 39 234 0.0 0.0 0.00 0.05 0.03 92 1013.1
20190217034504 39 239 0.0 0.0 0.00 0.06 0.03 92 1013.1
20190217033005 39 239 0.0 0.0 0.00 0.07 0.03 92 1013.1
20190217031504 39 242 0.0 0.0 0.00 0.08 0.03 92 1013.2
20190217030004 39 242 0.0 1.0 0.00 0.09 0.03 92 1013.2
20190217024504 39 230 1.0 3.0 0.00 0.09 0.03 91 1013.0
20190217023005 39 204 0.0 0.0 0.00 0.10 0.03 91 1013.0
20190217021504 40 204 0.0 5.0 0.00 0.11 0.03 90 1012.9
20190217020004 40 233 0.0 1.0 0.00 0.13 0.03 90 1012.8
20190217014504 41 265 0.0 5.0 0.00 0.15 0.03 89 1012.8
20190217013005 41 241 0.0 5.0 0.00 0.16 0.03 88 1012.7
20190217011504 42 211 0.0 7.0 0.00 0.19 0.03 87 1012.8
20190217010006 42 201 0.0 8.0 0.00 0.21 0.03 86 1012.7
20190217004504 43 208 4.0 10.0 0.00 0.23 0.03 84 1012.6
20190217003005 43 192 5.0 7.0 0.00 0.26 0.03 85 1012.6
20190217001504 43 178 3.0 7.0 0.00 0.26 0.03 86 1012.5
20190217000004 43 252 0.0 6.0 0.00 0.26 0.03 83 1012.6
20190216234505 43 284 2.0 7.0 0.00 0.26 0.03 84 1012.5
20190216233005 43 305 3.0 7.0 0.00 0.26 0.03 85 1012.5
20190216231504 43 300 6.0 10.0 0.00 0.26 0.03 84 1012.5
20190216230004 44 284 5.0 7.0 0.00 0.26 0.03 85 1012.3
20190216224504 44 228 3.0 8.0 0.00 0.26 0.03 87 1012.1
20190216223004 44 263 2.0 3.0 0.00 0.27 0.03 87 1011.9
20190216221504 43 296 2.0 7.0 0.00 0.28 0.03 87 1012.0
20190216220004 43 330 4.0 10.0 0.00 0.28 0.03 90 1012.0
20190216214504 43 337 2.0 8.0 0.01 0.28 0.03 90 1011.9
20190216213005 43 316 2.0 5.0 0.01 0.28 0.03 92 1011.9
20190216211504 44 349 0.0 5.0 0.01 0.28 0.03 93 1011.7
20190216210004 43 349 2.0 3.0 0.02 0.28 0.03 92 1011.8
20190216204505 43 240 1.0 6.0 0.01 0.27 0.02 92 1011.7
20190216203005 42 197 4.0 9.0 0.02 0.27 0.02 92 1011.6
20190216201506 42 195 3.0 6.0 0.02 0.27 0.02 93 1011.7
20190216200004 42 192 3.0 7.0 0.01 0.26 0.01 93 1011.7
20190216194504 42 183 1.0 8.0 0.01 0.26 0.01 93 1011.7
20190216193004 42 194 5.0 8.0 0.00 0.25 0.00 92 1011.6
20190216191506 42 189 5.0 12.0 0.00 0.25 0.00 92 1011.6
20190216190005 42 198 6.0 12.0 0.00 0.25 0.00 92 1011.5
20190216184504 42 178 5.0 10.0 0.00 0.25 0.00 93 1011.3
20190216183004 41 160 7.0 12.0 0.00 0.25 0.00 94 1011.2
20190216181504 41 169 6.0 9.0 0.00 0.25 0.00 94 1011.2
20190216180003 40 198 5.0 10.0 0.00 0.25 0.00 95 1011.1
20190216174504 39 183 2.0 5.0 0.00 0.26 0.00 95 1010.9
20190216173005 39 150 1.0 6.0 0.00 0.26 0.00 95 1010.9
20190216171504 38 176 0.0 2.0 0.00 0.27 0.00 95 1010.8
20190216170004 38 163 0.0 0.0 0.00 0.27 0.00 95 1010.7
20190216164504 37 207 0.0 0.0 0.00 0.27 0.00 95 1010.6
20190216163005 37 207 0.0 0.0 0.00 0.27 0.00 95 1010.5
20190216161505 37 207 0.0 3.0 0.00 0.27 0.00 95 1010.2
20190216160005 36 205 2.0 5.0 0.00 0.27 0.00 95 1010.0
20190216154504 36 218 2.0 3.0 0.00 0.27 0.00 95 1009.8
20190216153004 35 224 1.0 3.0 0.00 0.27 0.00 94 1009.6
20190216151504 35 209 1.0 3.0 0.00 0.27 0.00 94 1009.4
20190216150004 35 209 0.0 2.0 0.00 0.27 0.00 94 1009.3
20190216144503 36 209 0.0 3.0 0.00 0.27 0.00 94 1009.2
20190216143005 36 205 0.0 2.0 0.00 0.27 0.00 94 1008.9
20190216141504 37 199 0.0 1.0 0.00 0.28 0.00 94 1008.8
20190216140005 37 199 0.0 0.0 0.00 0.28 0.00 94 1008.5
20190216134505 38 199 0.0 2.0 0.00 0.28 0.00 94 1008.4
20190216133005 38 199 0.0 2.0 0.00 0.28 0.00 94 1008.2
20190216131504 38 199 0.0 1.0 0.00 0.28 0.00 94 1008.1
20190216130005 38 199 0.0 0.0 0.00 0.28 0.00 94 1007.7
20190216124504 39 199 0.0 0.0 0.00 0.28 0.00 94 1007.5
20190216123005 39 199 0.0 0.0 0.00 0.29 0.00 94 1007.4
20190216121504 39 199 0.0 0.0 0.00 0.29 0.00 94 1007.1
20190216120004 39 199 0.0 1.0 0.00 0.29 0.00 94 1006.9